When you browse on this site, cookies collect data to enhance your experience and personalize the content and advertising you see.
Visit our Privacy Policy to learn more. By continuing to use the site, you agree to this use of cookies and data.
  • In Spain
  • List of Countries
  • For 7 days
  • Water Temperature
  • Weather Map
  • Weather Widgets
  • user-avatar
    Login

    Hourly Weather Madrid

    Today, 22 October, Tuesday

    Time Temperature Precipitation Wind Pressure Humidity
    00:00 +10°C° 0 mm 2 mps 706 mmHg 57%
    01:00 +10°C° 0 mm 2 mps 706 mmHg 59%
    02:00 +10°C° 0 mm 3 mps 705 mmHg 61%
    03:00 +10°C° 0 mm 3 mps 705 mmHg 64%
    04:00 +10°C° 0 mm 3 mps 705 mmHg 64%
    05:00 +10°C° 0 mm 4 mps 705 mmHg 65%
    06:00 +10°C° 0 mm 3 mps 705 mmHg 67%
    07:00 +10°C° 0.1 mm 4 mps 705 mmHg 66%
    08:00 +11°C° 0.1 mm 4 mps 705 mmHg 64%
    09:00 +10°C° 0.1 mm 5 mps 705 mmHg 63%
    10:00 +12°C° 0 mm 5 mps 704 mmHg 58%
    11:00 +13°C° 0 mm 5 mps 704 mmHg 53%
    12:00 +14°C° 0 mm 5 mps 703 mmHg 48%
    13:00 +14°C° 0 mm 5 mps 703 mmHg 50%
    14:00 +14°C° 0 mm 4 mps 702 mmHg 51%
    15:00 +13°C° 0 mm 4 mps 701 mmHg 52%
    16:00 +13°C° 0 mm 4 mps 701 mmHg 55%
    17:00 +12°C° 0 mm 3 mps 701 mmHg 58%
    18:00 +12°C° 0 mm 3 mps 701 mmHg 61%
    19:00 +11°C° 0.1 mm 3 mps 701 mmHg 62%
    20:00 +11°C° 0.1 mm 3 mps 701 mmHg 64%
    21:00 +11°C° 0.1 mm 3 mps 701 mmHg 66%
    22:00 +10°C° 0.5 mm 3 mps 700 mmHg 69%
    23:00 +10°C° 0.5 mm 3 mps 700 mmHg 73%

    Tomorrow, 23 October, Wednesday

    Time Temperature Precipitation Wind Pressure Humidity
    00:00 +10°C° 0.5 mm 3 mps 699 mmHg 77%
    01:00 +10°C° 0.5 mm 3 mps 699 mmHg 77%
    02:00 +10°C° 0.5 mm 2 mps 698 mmHg 77%
    03:00 +10°C° 0.5 mm 2 mps 698 mmHg 77%
    04:00 +9°C° 2.9 mm 3 mps 697 mmHg 82%
    05:00 +9°C° 2.9 mm 3 mps 697 mmHg 87%
    06:00 +8°C° 2.9 mm 4 mps 697 mmHg 91%
    07:00 +9°C° 2.9 mm 3 mps 697 mmHg 91%
    08:00 +9°C° 2.9 mm 3 mps 697 mmHg 91%
    09:00 +9°C° 2.9 mm 2 mps 698 mmHg 91%
    10:00 +9°C° 2.6 mm 2 mps 698 mmHg 89%
    11:00 +9°C° 2.6 mm 2 mps 698 mmHg 88%
    12:00 +10°C° 2.6 mm 1 mps 699 mmHg 87%
    13:00 +10°C° 0.9 mm 2 mps 699 mmHg 83%
    14:00 +10°C° 0.9 mm 2 mps 699 mmHg 79%
    15:00 +10°C° 0.9 mm 3 mps 699 mmHg 76%
    16:00 +10°C° 0 mm 3 mps 699 mmHg 75%
    17:00 +10°C° 0 mm 3 mps 700 mmHg 75%
    18:00 +10°C° 0 mm 3 mps 700 mmHg 75%
    19:00 +10°C° 0 mm 3 mps 700 mmHg 76%
    20:00 +10°C° 0 mm 3 mps 701 mmHg 77%
    21:00 +10°C° 0 mm 3 mps 701 mmHg 78%
    22:00 +10°C° 0 mm 3 mps 702 mmHg 79%
    23:00 +10°C° 0 mm 3 mps 702 mmHg 80%

    Day after tomorrow, 24 October, Thursday

    Time Temperature Precipitation Wind Pressure Humidity
    00:00 +10°C° 0 mm 3 mps 702 mmHg 81%
    01:00 +10°C° 0.1 mm 3 mps 703 mmHg 81%
    02:00 +10°C° 0.1 mm 3 mps 703 mmHg 81%
    03:00 +10°C° 0.1 mm 3 mps 704 mmHg 82%
    04:00 +10°C° 0 mm 3 mps 704 mmHg 80%
    05:00 +10°C° 0 mm 3 mps 704 mmHg 79%
    06:00 +10°C° 0 mm 3 mps 705 mmHg 78%
    07:00 +11°C° 0 mm 3 mps 706 mmHg 73%
    08:00 +11°C° 0 mm 3 mps 706 mmHg 67%
    09:00 +13°C° 0 mm 2 mps 707 mmHg 61%
    10:00 +14°C° 0 mm 2 mps 707 mmHg 57%
    11:00 +15°C° 0 mm 2 mps 708 mmHg 52%
    12:00 +16°C° 0 mm 2 mps 708 mmHg 47%
    13:00 +17°C° 0 mm 2 mps 708 mmHg 47%
    14:00 +17°C° 0 mm 3 mps 708 mmHg 47%
    15:00 +18°C° 0 mm 3 mps 708 mmHg 47%
    16:00 +17°C° 0 mm 3 mps 709 mmHg 52%
    17:00 +16°C° 0 mm 3 mps 709 mmHg 57%
    18:00 +14°C° 0 mm 3 mps 709 mmHg 63%
    19:00 +14°C° 0 mm 3 mps 710 mmHg 64%
    20:00 +14°C° 0 mm 2 mps 710 mmHg 66%
    21:00 +14°C° 0 mm 2 mps 711 mmHg 68%
    22:00 +14°C° 0 mm 1 mps 711 mmHg 70%
    23:00 +13°C° 0 mm 1 mps 711 mmHg 71%

    25 October, Friday

    Time Temperature Precipitation Wind Pressure Humidity
    00:00 +13°C° 0 mm 1 mps 711 mmHg 73%
    01:00 +13°C° 0 mm 1 mps 711 mmHg 75%
    02:00 +12°C° 0 mm 1 mps 711 mmHg 76%
    03:00 +11°C° 0 mm 0 mps 711 mmHg 78%
    04:00 +11°C° 0 mm 0 mps 711 mmHg 79%
    05:00 +11°C° 0 mm 1 mps 711 mmHg 79%
    06:00 +11°C° 0 mm 1 mps 711 mmHg 80%
    07:00 +12°C° 0 mm 1 mps 711 mmHg 75%
    08:00 +13°C° 0 mm 1 mps 711 mmHg 70%
    09:00 +15°C° 0 mm 1 mps 711 mmHg 66%
    10:00 +16°C° 0 mm 1 mps 711 mmHg 61%
    11:00 +18°C° 0 mm 1 mps 711 mmHg 57%
    12:00 +19°C° 0 mm 1 mps 711 mmHg 53%
    13:00 +20°C° 0 mm 1 mps 711 mmHg 50%
    14:00 +20°C° 0 mm 2 mps 711 mmHg 48%
    15:00 +20°C° 0 mm 2 mps 710 mmHg 45%
    16:00 +19°C° 0 mm 2 mps 710 mmHg 50%
    17:00 +19°C° 0 mm 1 mps 710 mmHg 54%
    18:00 +18°C° 0 mm 1 mps 710 mmHg 59%
    19:00 +16°C° 0 mm 1 mps 710 mmHg 60%
    20:00 +16°C° 0 mm 1 mps 710 mmHg 61%
    21:00 +14°C° 0 mm 0 mps 710 mmHg 63%
    22:00 +14°C° 0 mm 0 mps 710 mmHg 64%
    23:00 +13°C° 0 mm 0 mps 710 mmHg 65%

    26 October, Saturday

    Time Temperature Precipitation Wind Pressure Humidity
    00:00 +13°C° 0 mm 0 mps 710 mmHg 66%
    01:00 +13°C° 0 mm 0 mps 710 mmHg 67%
    02:00 +12°C° 0 mm 0 mps 710 mmHg 68%
    03:00 +13°C° 0 mm 1 mps 709 mmHg 68%
    04:00 +13°C° 0 mm 1 mps 709 mmHg 70%
    05:00 +11°C° 0 mm 0 mps 709 mmHg 71%
    06:00 +11°C° 0 mm 0 mps 709 mmHg 72%
    07:00 +14°C° 0 mm 1 mps 710 mmHg 67%
    08:00 +15°C° 0 mm 1 mps 710 mmHg 61%
    09:00 +16°C° 0 mm 1 mps 710 mmHg 56%
    10:00 +18°C° 0 mm 1 mps 710 mmHg 52%
    11:00 +20°C° 0 mm 1 mps 710 mmHg 48%
    12:00 +19°C° 0 mm 0 mps 710 mmHg 44%
    13:00 +21°C° 0 mm 1 mps 710 mmHg 42%
    14:00 +22°C° 0 mm 1 mps 710 mmHg 40%
    15:00 +22°C° 0 mm 1 mps 709 mmHg 38%
    16:00 +19°C° 0 mm 0 mps 709 mmHg 43%
    17:00 +18°C° 0 mm 0 mps 709 mmHg 48%
    18:00 +16°C° 0 mm 0 mps 709 mmHg 53%
    19:00 +16°C° 0 mm 0 mps 709 mmHg 54%
    20:00 +15°C° 0 mm 0 mps 709 mmHg 55%
    21:00 +15°C° 0 mm 0 mps 709 mmHg 56%
    22:00 +15°C° 0 mm 0 mps 709 mmHg 57%
    23:00 +14°C° 0 mm 0 mps 709 mmHg 58%

    27 October, Sunday

    Time Temperature Precipitation Wind Pressure Humidity
    00:00 +15°C° 0 mm 1 mps 709 mmHg 59%
    01:00 +14°C° 0 mm 1 mps 709 mmHg 60%
    02:00 +14°C° 0 mm 1 mps 709 mmHg 60%
    03:00 +14°C° 0 mm 1 mps 709 mmHg 60%
    04:00 +14°C° 0 mm 1 mps 709 mmHg 61%
    05:00 +13°C° 0 mm 1 mps 709 mmHg 62%
    06:00 +13°C° 0 mm 1 mps 709 mmHg 63%
    07:00 +14°C° 0 mm 1 mps 709 mmHg 58%
    08:00 +16°C° 0 mm 1 mps 709 mmHg 54%
    09:00 +18°C° 0 mm 1 mps 710 mmHg 50%
    10:00 +19°C° 0 mm 1 mps 710 mmHg 46%
    11:00 +20°C° 0 mm 1 mps 709 mmHg 42%
    12:00 +22°C° 0 mm 1 mps 709 mmHg 38%
    13:00 +22°C° 0 mm 1 mps 709 mmHg 36%
    14:00 +23°C° 0 mm 1 mps 709 mmHg 34%
    15:00 +23°C° 0 mm 1 mps 708 mmHg 33%
    16:00 +22°C° 0 mm 1 mps 708 mmHg 37%
    17:00 +21°C° 0 mm 1 mps 708 mmHg 41%
    18:00 +17°C° 0 mm 0 mps 708 mmHg 45%
    19:00 +17°C° 0 mm 0 mps 708 mmHg 46%
    20:00 +18°C° 0 mm 1 mps 709 mmHg 46%
    21:00 +18°C° 0 mm 1 mps 709 mmHg 47%
    22:00 +18°C° 0 mm 1 mps 709 mmHg 48%
    23:00 +16°C° 0 mm 1 mps 709 mmHg 49%

    28 October, Monday

    Time Temperature Precipitation Wind Pressure Humidity
    00:00 +16°C° 0 mm 1 mps 708 mmHg 49%
    01:00 +15°C° 0 mm 1 mps 708 mmHg 51%
    02:00 +15°C° 0 mm 1 mps 708 mmHg 54%
    03:00 +15°C° 0 mm 2 mps 708 mmHg 56%
    04:00 +14°C° 0 mm 1 mps 708 mmHg 59%
    05:00 +14°C° 0 mm 1 mps 708 mmHg 62%
    06:00 +14°C° 0 mm 1 mps 707 mmHg 65%
    07:00 +15°C° 0 mm 1 mps 708 mmHg 63%
    08:00 +15°C° 0 mm 1 mps 708 mmHg 61%
    09:00 +16°C° 0 mm 1 mps 708 mmHg 58%
    10:00 +18°C° 0 mm 2 mps 708 mmHg 53%
    11:00 +19°C° 0 mm 2 mps 708 mmHg 48%
    12:00 +21°C° 0 mm 2 mps 708 mmHg 43%
    13:00 +21°C° 0 mm 2 mps 708 mmHg 40%
    14:00 +23°C° 0 mm 2 mps 707 mmHg 36%
    15:00 +23°C° 0 mm 2 mps 707 mmHg 33%
    16:00 +21°C° 0 mm 2 mps 707 mmHg 36%
    17:00 +21°C° 0 mm 1 mps 707 mmHg 39%
    18:00 +20°C° 0 mm 1 mps 707 mmHg 42%
    19:00 +20°C° 0 mm 1 mps 707 mmHg 44%
    20:00 +19°C° 0 mm 1 mps 708 mmHg 45%
    21:00 +19°C° 0 mm 1 mps 708 mmHg 47%
    22:00 +19°C° 0 mm 1 mps 708 mmHg 48%
    23:00 +19°C° 0 mm 1 mps 708 mmHg 49%
    Show more